Fes Cuautitlan, Mexico

4:49 AM CST on January 17, 2017 (GMT -0600)
Lic Benito Juarez International

Weather History for MMMX - October, 2012

Change the Weather History Date:

Wednesday, October 31, 2012

  Actual Average Record
Temperature  
Mean Temperature 58 °F -  
Max Temperature 71 °F 70 °F 78 °F (2003)
Min Temperature 46 °F 44 °F 37 °F (2011)
Degree Days  
Heating Degree Days 6    
Growing Degree Days 8 (Base 50)    
Moisture  
Dew Point 38 °F    
Average Humidity 51    
Maximum Humidity 82    
Minimum Humidity 22    
Precipitation  
Precipitation 0.00 in - - ()
Sea Level Pressure  
Sea Level Pressure 30.22 in    
Wind  
Wind Speed 6 mph ()    
Max Wind Speed 18 mph    
Max Gust Speed 26 mph    
Visibility 8.5 miles    
Events Rain    
Averages and records for this station are not official NWS values.
T = Trace of Precipitation, MM = Missing Value Source: Averaged Metar Reports

Daily Weather History Graph

Daily Weather History Graph

Search for Another Location

Airport or City:

Trip Planner

Search our weather history database for the weather conditions in past years. The results will help you decide how hot, cold, wet, or windy it might be!

Date:

Astronomy

Oct. 31, 2012 Rise Set
Actual Time 6:36 AM CST 6:02 PM CST
Civil Twilight 6:14 AM CST 6:25 PM CST
Nautical Twilight 5:48 AM CST 6:51 PM CST
Astronomical Twilight 5:22 AM CST 7:17 PM CST
Moon 7:29 PM CST (10/31) 8:05 AM CST (10/31)
Length of Visible Light 12h 10m
Length of Day
11h 25m
Full, 97% of the Moon is Illuminated
Oct 31
Full
Nov 6
Last Quarter
Nov 13
New
Nov 20
First Quarter
Nov 28
Full

Hourly Weather History & Observations

Time (CST) Temp. Windchill Dew Point Humidity Pressure Visibility Wind Dir Wind Speed Gust Speed Precip Events Conditions
12:42 AM 53.6 °F - 39.2 °F 58% 30.35 in 10.0 mi East 4.6 mph - N/A   Scattered Clouds
12:44 AM 53.6 °F - 48.2 °F 82% 30.35 in 10.0 mi East 4.6 mph - N/A   Scattered Clouds
12:45 AM 53.6 °F - 48.2 °F 82% 30.35 in 10.0 mi East 4.6 mph - N/A   Scattered Clouds
1:47 AM 55.4 °F - 46.4 °F 72% 30.34 in 10.0 mi SE 5.8 mph - N/A   Scattered Clouds
2:45 AM 50.0 °F - 44.6 °F 82% 29.87 in 10.0 mi ENE 5.8 mph - N/A   Clear
3:47 AM 48.2 °F - 42.8 °F 82% 30.31 in 8.0 mi ENE 4.6 mph - N/A   Clear
4:46 AM 46.4 °F 44.3 °F 41.0 °F 81% 30.32 in 8.0 mi NE 4.6 mph - N/A   Clear
5:48 AM 46.4 °F 45.2 °F 39.2 °F 76% 29.92 in 8.0 mi ENE 3.5 mph - N/A   Clear
6:17 AM 46.4 °F 45.2 °F 39.2 °F 76% 30.32 in 8.0 mi East 3.5 mph - N/A   Clear
6:47 AM 46.4 °F 42.9 °F 39.2 °F 76% 30.32 in 7.0 mi ENE 6.9 mph - N/A   Clear
7:22 AM 46.4 °F 44.3 °F 39.2 °F 76% 30.32 in 7.0 mi ENE 4.6 mph - N/A   Clear
7:48 AM 48.2 °F - 39.2 °F 71% 30.32 in 6.0 mi East 4.6 mph - N/A   Clear
8:21 AM 51.8 °F - 42.8 °F 71% 30.36 in 6.0 mi NE 5.8 mph - N/A   Clear
8:22 AM 51.8 °F - 42.8 °F 71% 30.36 in 6.0 mi NE 5.8 mph - N/A   Clear
8:45 AM 53.6 °F - 42.8 °F 67% 29.99 in 6.0 mi NNE 6.9 mph - N/A   Clear
9:22 AM 57.2 °F - 44.6 °F 63% 30.38 in 6.0 mi NNE 3.5 mph - N/A   Partly Cloudy
9:24 AM 57.2 °F - 44.6 °F 63% 30.38 in 6.0 mi NNE 3.5 mph - N/A   Partly Cloudy
9:42 AM 59.0 °F - 44.6 °F 59% 30.38 in 6.0 mi Calm Calm - N/A   Partly Cloudy
10:45 AM 64.4 °F - 42.8 °F 45% 30.36 in 5.0 mi WNW 3.5 mph - N/A   Scattered Clouds
11:48 AM 66.2 °F - 35.6 °F 32% 29.86 in 5.0 mi East 3.5 mph - N/A   Scattered Clouds
12:46 PM 68.0 °F - 35.6 °F 30% 30.29 in 7.0 mi North 13.8 mph - N/A   Mostly Cloudy
12:48 PM 68.0 °F - 35.6 °F 30% 30.29 in 7.0 mi North 13.8 mph - N/A   Mostly Cloudy
1:25 PM 66.2 °F - 32.0 °F 28% 30.28 in 6.0 mi North 6.9 mph - N/A Rain Light Rain
1:44 PM 66.2 °F - 33.8 °F 30% 30.27 in 8.0 mi NNW 3.5 mph - N/A   Mostly Cloudy
1:47 PM 66.2 °F - 33.8 °F 30% 30.27 in 8.0 mi NNW 3.5 mph - N/A   Mostly Cloudy
1:48 PM 66.2 °F - 33.8 °F 30% 30.27 in 8.0 mi NNW 3.5 mph - N/A   Mostly Cloudy
2:18 PM 69.8 °F - 33.8 °F 27% 30.26 in 8.0 mi North 8.1 mph - N/A   Mostly Cloudy
2:46 PM 71.6 °F - 32.0 °F 23% 29.80 in 8.0 mi NNW 8.1 mph - N/A   Scattered Clouds
3:44 PM 71.6 °F - 30.2 °F 22% 30.23 in 8.0 mi North 4.6 mph - N/A   Scattered Clouds
4:50 PM 69.8 °F - 32.0 °F 25% 30.21 in 8.0 mi North 8.1 mph - N/A   Mostly Cloudy
5:47 PM 69.8 °F - 30.2 °F 23% 29.82 in 9.0 mi North 9.2 mph - N/A   Mostly Cloudy
6:09 PM 66.2 °F - 42.8 °F 43% 30.25 in 9.0 mi East 11.5 mph - N/A   Mostly Cloudy
6:41 PM 66.2 °F - 42.8 °F 43% 30.27 in 10.0 mi ENE 6.9 mph - N/A   Mostly Cloudy
7:27 PM 62.6 °F - 37.4 °F 39% 30.29 in 12.0 mi NE 18.4 mph - N/A   Mostly Cloudy
7:44 PM 62.6 °F - 37.4 °F 39% 30.31 in 12.0 mi ENE 15.0 mph - N/A   Overcast
8:44 PM 62.6 °F - 33.8 °F 34% 29.91 in 12.0 mi NE 12.7 mph 26.5 mph N/A   Mostly Cloudy
9:51 PM 60.8 °F - 32.0 °F 34% 30.35 in 15.0 mi North 12.7 mph - N/A   Mostly Cloudy
10:51 PM 60.8 °F - 32.0 °F 34% 30.35 in 15.0 mi NNW 8.1 mph - N/A   Mostly Cloudy
11:40 PM 60.8 °F - 30.2 °F 31% 29.88 in 15.0 mi NNW 8.1 mph - N/A   Mostly Cloudy